Temperature
20 20 20 20 17 16 18 19 19 19 19 19 19 19 18 18 18 18 17 17 17 17 17 17 17 17 17 17 17 17 17 17 17 17 17 17 17 17 17 17 17 17 17 17 17 17 17 17 17
20 20 20 19 16 17 18 19 19 19 19 19 19 19 18 17 17 17 17 17 17 17 17 17 17 17 17 17 17 17 17 17 17 17 17 17 17 17 17 17 17 17 17 17 17 17 17 17 17
20 20 20 16 17 18 19 19 19 20 20 20 19 18 18 17 17 17 17 17 17 17 17 17 17 17 17 17 17 17 17 17 17 17 17 17 17 17 17 17 17 17 17 17 17 17 17 17 17
20 20 19 17 18 18 19 19 19 20 20 20 19 18 18 18 18 18 17 17 17 17 17 17 17 17 17 17 17 17 17 17 17 17 17 17 17 17 17 16 16 16 16 16 17 17 17 17 17
20 20 17 17 18 18 18 19 19 19 19 19 19 17 17 18 18 18 17 17 17 17 17 17 17 17 17 16 17 17 16 16 16 17 16 16 17 16 16 16 16 16 16 16 17 16 17 17 17
20 17 17 17 18 19 19 19 19 19 19 19 18 17 17 17 17 17 17 17 17 17 17 17 17 17 16 16 16 16 16 16 16 16 16 16 16 16 16 16 16 16 16 16 16 16 16 16 17
19 16 17 18 18 19 19 20 19 19 19 19 19 17 17 17 17 17 17 17 17 17 17 17 17 17 16 16 16 16 16 16 16 16 16 16 16 16 16 16 16 16 16 16 16 16 16 16 16
20 16 17 17 18 19 19 20 19 19 19 19 19 17 17 17 17 17 17 16 16 16 16 16 17 17 16 16 16 16 16 16 16 16 16 16 16 16 16 16 16 16 16 16 16 16 16 16 16
20 16 17 18 18 19 19 19 19 19 19 19 18 18 18 18 17 17 17 16 16 16 16 16 16 16 16 16 16 16 16 16 16 16 16 16 16 16 16 16 16 16 16 16 16 16 16 16 16
19 17 18 19 19 19 19 19 19 19 18 18 18 18 18 17 17 17 17 17 17 16 16 16 16 16 16 16 16 16 16 16 16 16 16 16 16 16 16 15 15 15 15 15 15 15 15 16 16
19 18 18 19 20 19 19 19 19 18 17 18 18 18 18 17 17 17 17 17 17 16 16 16 16 16 16 16 16 16 16 16 16 16 16 15 15 15 15 15 15 15 15 15 15 15 15 15 15
19 19 19 19 20 20 19 19 18 18 18 19 19 18 18 17 17 17 17 17 17 17 17 16 16 16 16 16 16 16 16 16 16 16 15 15 15 15 15 15 15 15 15 15 15 15 15 15 15
19 19 20 20 20 20 19 18 18 18 19 18 18 18 18 17 17 17 17 17 17 16 16 16 16 16 16 16 16 16 16 16 16 16 15 15 15 15 15 15 15 15 15 15 15 15 15 15 15
19 19 19 20 20 19 19 18 18 18 18 18 18 17 17 17 17 17 17 17 17 16 16 16 16 16 16 16 16 16 16 16 16 16 15 15 15 15 15 15 15 15 15 15 15 14 15 15 15
20 19 19 19 19 19 19 17 17 18 18 17 17 17 17 17 17 17 17 17 17 16 16 16 16 16 16 16 16 16 16 16 16 15 15 15 15 15 15 15 15 14 14 14 14 14 14 14 14
19 18 18 18 18 19 18 17 17 18 17 16 17 17 17 17 17 17 17 17 17 16 16 16 16 16 16 16 16 16 16 16 15 15 15 15 15 14 14 14 14 14 14 14 14 14 14 14 14
17 17 18 18 18 18 17 17 17 17 17 16 16 16 17 17 17 17 17 17 17 16 16 16 16 16 16 16 15 15 15 15 15 15 15 15 14 14 14 14 14 14 14 14 14 14 14 14 14
18 17 17 17 18 17 16 16 16 16 16 16 16 16 16 16 17 17 17 17 16 16 16 16 16 16 16 15 15 15 15 15 15 15 15 14 14 14 14 14 14 14 13 13 13 14 14 14 14
18 18 17 18 18 17 16 16 16 16 15 15 15 16 16 16 17 17 17 16 16 16 16 16 16 16 16 15 15 15 15 15 15 14 14 14 14 14 14 14 13 13 13 13 13 13 13 13 13
18 18 17 18 18 17 16 16 16 15 15 16 16 16 16 16 17 17 17 16 16 16 16 16 16 16 16 15 15 15 15 15 14 14 14 14 14 14 13 13 13 13 13 13 13 13 13 13 13
18 17 18 17 17 17 17 16 16 15 16 16 16 16 16 16 17 17 17 16 16 16 16 16 16 16 15 15 15 15 15 14 14 14 14 14 13 13 13 13 13 13 13 13 13 12 12 13 13
17 18 18 18 17 16 17 15 15 15 15 15 15 16 16 17 17 17 17 16 16 16 16 16 16 15 15 15 15 15 15 14 14 14 14 13 13 13 13 13 13 13 13 12 12 12 12 12 12
18 18 18 17 16 16 16 16 15 15 15 15 15 16 16 17 17 17 17 17 16 16 16 16 15 15 15 15 15 14 14 14 14 14 13 13 13 13 13 13 12 12 12 12 12 12 12 12 12
18 17 16 15 15 15 16 15 15 14 15 15 15 16 16 17 17 17 17 16 16 16 16 15 15 15 15 15 14 14 14 14 14 14 13 13 13 13 13 12 12 12 12 12 12 12 12 12 12
17 16 15 15 14 15 15 15 15 16 15 15 15 16 17 17 17 17 17 17 16 16 16 15 15 15 15 15 14 14 14 14 13 13 13 13 13 13 12 12 12 12 12 12 12 12 12 12 12
17 16 15 16 15 14 15 15 15 16 16 16 16 16 17 17 17 17 17 17 16 16 16 15 15 15 15 14 14 14 14 13 13 13 13 13 12 12 12 12 12 12 11 11 11 11 11 11 12
16 15 15 14 15 14 14 15 15 16 16 16 16 16 16 16 16 16 16 16 16 16 16 15 15 15 15 14 14 14 13 13 13 13 13 12 12 12 12 12 11 11 11 11 11 11 11 11 11
17 15 14 14 15 15 15 15 15 16 16 15 15 15 16 16 16 16 16 16 16 16 16 15 15 15 15 14 14 13 13 13 13 13 12 12 12 12 12 12 11 11 11 11 11 11 11 11 11
16 15 14 13 14 14 15 15 16 16 16 15 15 16 16 16 16 16 16 16 16 15 15 15 15 15 14 14 14 13 13 13 13 12 12 12 12 12 12 11 11 11 11 11 11 11 11 11 11
16 15 14 15 14 13 13 14 16 15 15 15 15 16 16 16 16 16 16 15 15 15 15 15 15 14 14 14 14 13 13 13 12 12 12 12 12 11 11 11 11 11 11 11 11 11 10 10 11
Wind_Speed
1 4 4 4 6 5 2 1 0 1 2 2 3 6 7 5 2 2 0 3 3 3 2 3 5 6 7 7 8 8 8 8 8 8 9 9 10 10 10 10 10 10 10 10 10 9 10 9 9
2 3 4 5 5 3 1 1 1 1 3 4 4 5 6 4 3 4 2 2 3 3 3 3 5 6 7 7 7 7 8 8 8 8 9 9 9 9 9 9 10 10 10 10 9 9 9 10 9
2 4 4 5 4 3 2 1 2 2 3 3 4 4 4 3 3 3 3 4 4 4 3 4 6 6 7 7 7 7 8 8 8 8 8 9 9 9 9 9 9 9 9 9 9 9 9 9 9
4 5 5 5 4 1 2 2 2 3 3 4 4 4 3 2 3 4 5 5 5 3 3 4 6 6 7 7 7 7 7 7 8 8 8 8 8 8 8 8 9 9 8 8 8 8 8 8 8
4 4 5 4 2 1 1 0 2 2 2 3 4 4 3 4 5 7 6 5 5 3 3 4 6 6 6 6 6 7 7 7 7 7 7 7 7 7 8 8 8 8 8 8 8 8 7 8 8
4 5 5 2 1 2 2 1 2 3 3 3 4 4 2 2 5 6 5 5 4 3 4 4 6 6 6 6 7 7 7 7 7 7 7 7 7 7 7 7 7 8 8 8 8 8 8 7 7
4 4 3 2 1 2 1 1 3 3 3 2 4 5 1 1 3 5 5 5 4 4 4 5 5 5 6 7 7 7 7 7 7 7 8 8 8 7 7 7 6 6 7 7 8 8 8 8 8
4 5 4 1 2 0 1 2 2 3 2 3 4 5 4 3 5 6 6 5 4 4 4 4 5 6 6 6 6 7 7 7 7 7 7 7 8 8 7 7 6 6 7 8 8 9 9 9 9
4 5 2 2 3 1 1 2 2 3 5 3 2 2 3 8 8 7 6 4 3 2 2 3 3 4 5 5 5 6 7 7 7 7 8 8 8 8 8 8 7 8 9 9 10 10 10 9 9
4 3 3 2 3 3 2 3 2 3 4 3 3 4 7 8 8 7 5 4 2 1 1 2 2 3 4 3 5 6 6 7 7 7 7 7 7 7 7 8 9 9 9 9 10 10 9 8 7
3 4 2 1 2 3 3 3 2 5 1 3 4 6 8 7 6 6 5 3 2 1 1 1 1 2 3 3 4 4 4 5 5 5 5 5 6 6 7 7 7 8 8 7 8 8 7 7 6
3 1 2 2 2 3 3 3 3 2 3 3 5 8 8 8 6 6 5 3 2 2 1 1 2 2 2 2 3 3 3 3 3 3 4 4 3 4 4 4 5 5 5 5 6 5 6 6 6
2 1 1 2 3 4 5 3 3 0 1 4 7 8 7 7 5 4 4 4 3 2 2 1 2 2 2 2 2 2 2 2 2 3 3 4 3 2 3 3 4 4 5 5 4 4 4 4 4
2 2 2 1 2 2 4 1 2 2 3 6 7 7 6 6 5 4 4 4 3 3 2 2 2 2 3 2 2 2 2 2 2 3 3 4 4 3 3 3 3 4 4 4 4 4 3 3 3
3 3 3 1 1 1 4 2 2 2 5 6 5 5 5 4 4 4 4 4 4 3 2 2 2 2 2 2 2 2 2 3 3 3 3 4 4 4 3 3 3 3 4 5 4 4 4 3 4
3 3 2 3 0 1 4 3 4 3 6 5 4 4 4 4 4 4 4 3 4 3 3 2 2 2 2 2 2 2 3 3 3 3 3 4 5 5 4 3 2 3 4 4 3 3 3 3 3
4 1 1 3 1 2 3 3 3 2 6 5 4 4 4 3 3 3 4 4 4 4 4 3 2 3 2 3 3 3 3 3 3 3 3 3 4 5 4 3 2 3 3 3 3 3 2 2 2
2 2 1 3 1 3 2 4 3 2 4 5 5 4 4 5 6 4 4 4 4 4 4 3 2 2 3 3 3 3 3 2 3 3 2 3 4 5 5 3 3 3 2 2 3 3 3 2 2
3 3 3 4 3 3 4 5 5 3 4 5 5 5 6 7 5 3 4 4 4 3 3 3 3 3 3 2 2 2 1 1 1 2 2 3 3 4 4 3 3 3 2 2 2 2 3 2 2
3 2 3 3 0 3 3 5 5 4 6 7 8 8 8 6 3 3 4 4 5 5 4 4 4 4 4 2 2 2 2 1 1 1 3 3 3 3 3 3 2 2 2 2 2 2 2 2 2
3 5 5 4 2 2 1 5 5 3 3 4 6 7 7 8 8 6 5 6 5 6 6 5 4 4 4 3 3 3 3 3 2 2 1 1 2 2 3 3 3 2 2 1 1 1 2 1 2
4 5 5 3 1 2 0 4 7 4 3 5 7 7 7 8 7 7 6 6 7 7 6 5 5 4 4 4 5 5 3 2 1 1 0 1 1 2 2 2 2 2 2 1 1 1 1 2 1
5 1 2 2 3 1 1 2 7 2 4 6 7 8 8 8 8 8 8 8 7 6 6 5 5 4 4 4 5 5 3 2 1 1 1 1 1 1 1 1 2 1 1 1 1 1 1 1 1
4 5 5 5 4 2 4 4 6 4 5 5 5 6 7 7 7 7 6 5 5 5 5 5 5 5 4 5 5 5 5 4 3 2 1 0 0 1 1 1 1 1 1 1 1 1 1 1 1
4 5 3 4 2 5 3 3 7 6 5 5 5 5 5 6 6 6 6 6 6 6 6 6 6 5 5 5 5 5 5 5 5 3 3 2 1 1 1 0 1 1 1 2 1 1 1 1 1
4 7 6 4 4 4 2 5 6 4 3 2 2 1 2 4 5 6 7 7 7 7 7 7 7 6 6 6 5 4 4 3 3 3 3 3 2 2 1 1 1 1 1 1 1 1 1 1 1
5 4 5 5 2 2 5 5 6 2 2 2 2 1 1 3 4 5 5 6 6 7 7 8 8 6 6 6 5 4 4 4 3 3 3 2 2 2 2 1 1 1 0 1 1 1 2 1 2
4 7 5 4 3 3 5 4 4 4 4 2 1 1 2 1 2 3 4 5 5 6 5 5 7 7 6 5 5 4 4 4 4 3 3 3 3 2 2 1 1 1 0 0 1 0 1 1 1
3 3 4 4 4 4 3 6 4 5 4 4 4 3 3 3 3 2 2 3 4 3 4 4 5 5 5 5 5 4 4 4 3 3 3 3 2 2 2 2 2 2 1 1 1 1 1 1 1
4 5 6 4 4 4 3 6 3 3 2 2 3 2 1 2 2 2 2 2 2 3 3 4 5 5 5 5 4 4 4 3 3 3 3 3 3 3 3 2 2 2 2 2 2 2 1 1 1
Wind_Direction
352 85 81 58 56 55 65 349 155 63 55 44 65 85 96 87 90 131 123 119 111 118 117 116 103 98 95 91 89 90 88 88 92 89 89 89 87 87 89 90 88 85 85 83 79 75 74 73 71
101 95 62 61 81 77 357 304 126 140 142 135 79 72 75 68 70 111 115 137 123 119 104 110 106 99 95 94 93 92 93 91 93 91 93 92 89 90 90 90 87 85 84 82 79 76 75 73 71
83 60 76 71 92 138 153 174 132 71 105 106 78 62 83 99 120 149 166 141 113 100 96 110 109 102 95 93 92 91 95 94 91 89 92 92 91 92 90 89 87 86 84 80 76 76 75 73 71
79 48 56 71 82 183 184 173 140 101 64 61 96 74 62 36 148 148 132 127 112 95 90 106 109 104 97 93 93 89 96 98 94 91 92 91 90 88 87 86 83 82 79 78 75 72 74 73 70
65 75 65 60 28 339 351 169 123 89 75 64 94 98 53 7 90 113 122 118 116 107 93 103 106 99 96 95 95 92 95 97 95 93 93 91 87 85 84 83 79 77 73 72 72 69 70 70 69
57 65 81 89 18 3 360 27 94 81 88 93 97 107 68 48 102 120 119 112 108 101 85 90 102 97 94 94 93 92 93 91 89 88 90 88 85 80 78 78 77 75 69 65 65 64 66 66 69
96 88 106 124 85 19 18 70 107 106 99 117 123 112 98 101 123 118 108 99 88 80 77 65 71 83 88 89 89 88 88 85 85 84 82 78 76 78 76 69 71 72 70 65 61 62 63 64 67
113 98 83 88 116 53 340 64 77 95 95 92 107 134 175 181 129 104 92 84 80 74 73 71 66 66 65 63 80 85 84 80 76 75 74 70 63 60 61 56 57 62 65 63 60 61 60 60 59
89 78 116 182 161 172 110 84 45 62 87 67 67 132 154 131 116 101 89 74 75 82 65 70 68 62 63 61 64 70 73 67 63 59 59 54 46 44 43 48 52 59 62 61 59 58 56 56 54
84 115 190 192 168 150 115 109 123 85 74 64 59 65 103 119 126 126 129 138 145 148 100 73 74 71 66 64 60 55 58 58 57 55 53 48 45 41 41 44 50 52 54 53 51 51 54 54 51
111 151 168 139 146 130 121 103 92 121 139 200 178 146 131 129 134 142 148 151 165 162 122 102 98 78 78 64 65 60 57 57 54 55 55 54 50 43 38 37 36 39 43 42 43 46 50 54 53
109 138 151 151 132 123 141 132 106 139 212 192 158 144 140 145 159 166 164 161 148 132 147 119 123 102 93 86 76 74 65 61 56 56 63 69 59 47 40 41 35 40 41 40 42 48 52 54 53
92 95 105 132 108 119 110 120 138 231 73 102 114 122 142 155 166 167 156 148 142 155 170 163 127 127 112 94 86 81 72 69 67 65 68 82 76 58 49 44 43 43 47 47 43 44 49 52 50
148 102 65 74 100 102 114 84 98 253 118 114 125 143 157 163 162 144 146 153 165 179 180 170 144 139 117 122 118 98 87 83 74 66 72 90 92 84 70 55 47 42 46 52 56 52 49 49 55
92 69 25 11 117 155 114 27 266 213 129 135 151 165 166 173 164 174 179 173 178 180 173 165 161 137 129 140 131 110 106 101 83 71 75 87 95 95 87 72 57 41 49 59 59 53 50 50 50
68 63 18 309 101 139 127 253 280 163 139 152 169 175 177 190 191 197 185 172 168 164 160 168 157 137 146 137 115 98 101 103 95 92 87 91 101 103 90 77 60 45 55 62 64 50 47 39 38
43 78 257 304 309 120 137 234 280 164 155 170 184 188 192 200 214 211 189 175 166 168 165 158 136 138 140 125 107 93 90 85 88 96 97 104 110 111 102 84 62 60 62 57 62 53 56 50 36
207 189 230 251 251 128 174 242 277 195 176 191 200 201 202 209 222 213 194 180 168 163 155 152 136 129 118 98 87 80 70 62 67 76 80 104 114 118 112 99 77 71 68 56 59 65 50 51 38
165 175 234 252 226 170 214 249 265 216 203 214 214 211 211 224 228 196 187 175 158 150 147 147 143 137 124 108 113 116 109 80 63 61 75 94 107 119 117 100 87 78 82 74 72 74 60 40 26
168 189 250 287 232 179 240 268 266 218 211 213 212 215 214 217 216 196 181 173 171 169 168 159 159 162 164 154 138 130 128 116 104 57 64 85 106 122 132 125 123 110 97 72 62 71 68 39 36
205 202 222 235 343 34 341 308 283 261 234 229 221 217 215 207 206 202 190 190 179 180 178 174 176 174 169 146 114 91 69 53 45 39 41 37 91 114 127 134 128 120 118 120 95 88 95 81 24
241 225 205 200 148 278 139 290 286 267 273 245 233 223 219 213 202 198 193 193 194 196 185 175 174 168 158 148 145 143 142 152 190 188 225 12 71 88 106 118 122 124 128 135 160 107 113 115 78
216 175 150 163 162 286 281 216 284 300 272 259 243 228 222 210 197 196 198 199 197 188 181 179 165 160 153 157 161 157 148 152 128 106 86 38 22 46 85 125 131 144 159 168 162 119 124 130 144
136 72 55 52 81 272 232 192 277 248 238 262 255 235 222 207 196 196 197 186 182 172 174 173 164 165 163 162 162 164 159 154 146 150 153 53 352 1 27 101 143 182 187 195 195 169 158 154 147
97 90 23 353 4 253 238 201 249 252 236 234 246 245 221 198 192 190 185 184 183 178 177 176 172 174 172 171 176 177 172 170 176 181 185 182 190 274 274 285 222 229 222 203 175 159 192 178 171
172 147 165 210 229 274 273 231 254 263 264 257 242 224 180 183 191 196 199 193 191 188 182 179 182 183 178 180 186 182 178 176 186 187 191 197 202 222 233 233 260 257 241 211 177 182 216 196 204
144 173 165 141 187 261 272 280 300 297 338 11 28 64 160 193 201 205 202 191 189 190 191 189 186 186 186 188 183 177 182 182 188 190 194 205 210 214 195 181 195 260 235 197 161 227 229 194 211
142 144 113 136 182 248 281 276 254 264 261 280 293 270 249 221 218 216 201 195 194 195 195 188 187 191 190 186 187 189 195 197 189 178 190 204 208 206 175 177 191 208 228 202 145 307 281 197 224
108 119 126 143 170 172 254 272 228 224 226 230 247 247 228 210 211 220 211 193 185 179 176 183 193 189 186 186 188 187 192 189 178 185 200 206 206 193 188 194 197 199 212 203 167 232 254 225 257
184 174 154 167 219 186 195 268 289 244 249 230 251 264 239 206 184 183 169 146 159 174 180 187 194 194 197 189 181 186 183 181 191 203 212 208 203 205 204 200 203 211 212 203 200 222 233 219 238
Height
1491 1491 1491 1494 1498 1509 1512 1509 1505 1505 1505 1505 1505 1505 1507 1510 1514 1519 1516 1514 1514 1514 1515 1515 1514 1514 1514 1514 1514 1514 1514 1514 1515 1515 1515 1516 1516 1516 1517 1517 1517 1518 1518 1519 1519 1519 1519 1519 1519
1491 1492 1494 1495 1506 1519 1515 1507 1506 1504 1505 1506 1506 1507 1508 1511 1512 1514 1514 1514 1515 1515 1516 1516 1515 1515 1515 1515 1515 1515 1515 1516 1516 1516 1517 1517 1517 1517 1518 1518 1518 1519 1519 1520 1520 1520 1520 1520 1520
1492 1493 1495 1499 1510 1516 1512 1506 1505 1504 1505 1506 1508 1509 1510 1513 1513 1514 1515 1515 1516 1516 1516 1516 1516 1516 1516 1516 1516 1516 1517 1517 1517 1518 1518 1518 1518 1519 1519 1519 1520 1520 1520 1521 1521 1521 1521 1521 1521
1494 1495 1497 1505 1510 1509 1507 1505 1505 1505 1506 1507 1508 1511 1512 1514 1515 1515 1516 1516 1517 1517 1517 1518 1518 1518 1517 1518 1518 1518 1518 1518 1518 1519 1519 1520 1520 1520 1520 1520 1521 1521 1521 1522 1522 1522 1522 1521 1522
1494 1496 1504 1512 1510 1507 1505 1505 1505 1506 1507 1508 1509 1511 1513 1515 1516 1516 1517 1517 1518 1518 1519 1519 1519 1519 1519 1519 1519 1519 1519 1519 1520 1520 1520 1521 1521 1521 1521 1522 1522 1522 1523 1523 1523 1523 1522 1522 1522
1496 1498 1512 1516 1512 1507 1506 1505 1506 1507 1508 1509 1510 1512 1515 1516 1516 1517 1518 1519 1519 1519 1520 1520 1520 1520 1520 1520 1520 1521 1521 1521 1521 1521 1522 1522 1522 1522 1523 1523 1523 1524 1524 1524 1524 1524 1523 1523 1523
1498 1503 1511 1513 1513 1510 1507 1507 1507 1508 1509 1511 1511 1513 1515 1516 1517 1518 1519 1520 1520 1520 1521 1521 1521 1521 1522 1522 1522 1522 1522 1523 1523 1523 1523 1523 1523 1524 1524 1524 1525 1525 1525 1525 1525 1525 1524 1524 1524
1498 1504 1511 1513 1513 1511 1508 1507 1508 1509 1510 1511 1512 1513 1515 1517 1518 1519 1520 1521 1521 1521 1522 1522 1522 1522 1523 1523 1523 1523 1524 1524 1524 1524 1524 1525 1525 1525 1525 1525 1525 1526 1526 1526 1526 1525 1525 1525 1525
1498 1508 1515 1512 1511 1510 1508 1508 1509 1510 1511 1512 1513 1514 1515 1516 1518 1519 1520 1521 1522 1522 1523 1523 1523 1524 1524 1524 1525 1525 1525 1525 1525 1526 1526 1526 1526 1526 1526 1526 1526 1527 1527 1527 1527 1526 1526 1526 1526
1500 1510 1509 1506 1506 1507 1508 1508 1510 1511 1512 1513 1513 1514 1515 1516 1518 1519 1520 1521 1522 1523 1524 1524 1525 1525 1525 1526 1526 1526 1526 1527 1527 1527 1527 1527 1527 1527 1527 1527 1528 1528 1528 1528 1528 1528 1527 1527 1527
1500 1506 1505 1505 1505 1506 1508 1509 1510 1511 1513 1513 1513 1514 1515 1517 1518 1520 1521 1522 1523 1524 1525 1525 1526 1526 1527 1527 1527 1527 1528 1528 1528 1528 1529 1529 1529 1529 1529 1529 1529 1529 1529 1529 1529 1529 1528 1528 1527
1502 1503 1504 1505 1505 1507 1508 1509 1511 1512 1513 1513 1513 1514 1515 1517 1518 1520 1521 1522 1524 1524 1525 1526 1526 1527 1527 1528 1528 1528 1529 1529 1529 1529 1529 1530 1530 1530 1530 1530 1530 1530 1530 1530 1529 1529 1529 1528 1528
1502 1504 1504 1505 1506 1507 1509 1510 1511 1513 1513 1513 1514 1514 1516 1517 1519 1520 1522 1523 1524 1525 1526 1526 1527 1527 1528 1528 1529 1529 1530 1530 1530 1530 1530 1531 1531 1531 1531 1531 1531 1530 1530 1530 1530 1530 1529 1529 1529
1503 1504 1505 1506 1506 1508 1509 1511 1512 1513 1513 1513 1514 1515 1516 1517 1519 1520 1521 1522 1523 1525 1526 1526 1527 1528 1528 1529 1529 1530 1530 1531 1531 1531 1531 1531 1531 1531 1531 1531 1531 1531 1531 1531 1530 1530 1530 1529 1529
1503 1506 1507 1507 1507 1508 1509 1514 1513 1512 1512 1513 1514 1515 1516 1517 1519 1520 1521 1522 1523 1525 1525 1526 1527 1528 1529 1529 1530 1530 1530 1531 1531 1531 1531 1532 1532 1532 1532 1532 1531 1531 1531 1531 1531 1530 1530 1529 1529
1505 1510 1515 1509 1508 1508 1513 1520 1512 1512 1512 1513 1514 1515 1516 1517 1518 1519 1521 1522 1523 1524 1525 1526 1527 1528 1528 1529 1530 1530 1531 1531 1531 1531 1531 1532 1532 1532 1532 1532 1531 1531 1531 1531 1531 1530 1530 1529 1529
1512 1518 1517 1513 1508 1509 1513 1517 1512 1511 1511 1512 1513 1514 1515 1516 1518 1519 1520 1521 1522 1524 1525 1526 1527 1527 1528 1529 1529 1530 1531 1531 1531 1531 1531 1532 1532 1532 1532 1532 1532 1531 1531 1531 1530 1530 1530 1529 1529
1517 1517 1517 1516 1510 1511 1514 1514 1511 1511 1511 1511 1512 1513 1514 1514 1516 1517 1519 1520 1522 1523 1524 1525 1526 1527 1527 1528 1529 1530 1530 1530 1530 1531 1531 1531 1531 1532 1532 1532 1532 1531 1531 1531 1530 1530 1529 1529 1529
1510 1514 1516 1513 1508 1511 1513 1513 1510 1509 1510 1510 1510 1511 1511 1512 1514 1516 1517 1519 1520 1521 1523 1524 1525 1526 1527 1528 1528 1529 1529 1529 1530 1530 1530 1531 1531 1531 1531 1531 1531 1531 1531 1530 1530 1530 1529 1529 1528
1509 1514 1514 1511 1507 1510 1513 1512 1508 1507 1507 1506 1507 1508 1509 1510 1512 1513 1515 1517 1518 1519 1521 1522 1524 1525 1526 1527 1527 1528 1529 1529 1529 1529 1530 1530 1530 1531 1531 1531 1531 1531 1531 1530 1530 1529 1529 1529 1528
1509 1512 1512 1512 1509 1510 1512 1514 1509 1505 1504 1504 1504 1505 1506 1507 1508 1510 1512 1514 1515 1517 1519 1520 1522 1523 1525 1526 1526 1527 1528 1528 1528 1528 1528 1529 1529 1530 1530 1530 1530 1530 1530 1530 1530 1529 1529 1528 1529
1510 1503 1505 1508 1515 1520 1516 1526 1511 1506 1504 1502 1501 1501 1502 1503 1505 1507 1509 1511 1513 1515 1517 1519 1520 1522 1523 1524 1525 1525 1526 1526 1527 1527 1528 1528 1528 1529 1529 1529 1529 1529 1530 1529 1529 1529 1529 1529 1528
1503 1500 1504 1507 1514 1520 1518 1524 1516 1507 1504 1500 1498 1497 1498 1500 1502 1504 1506 1508 1511 1513 1515 1517 1518 1520 1521 1522 1523 1524 1525 1525 1526 1527 1527 1527 1527 1527 1528 1528 1528 1528 1528 1529 1529 1528 1528 1528 1528
1499 1504 1508 1514 1520 1528 1519 1523 1519 1508 1501 1497 1494 1494 1494 1496 1499 1501 1504 1506 1509 1511 1513 1514 1516 1518 1519 1520 1522 1522 1523 1524 1524 1525 1525 1526 1526 1526 1526 1527 1527 1527 1527 1527 1527 1527 1527 1527 1527
1501 1514 1527 1528 1533 1530 1517 1519 1514 1498 1494 1493 1492 1491 1492 1494 1496 1498 1501 1503 1505 1508 1510 1512 1514 1515 1517 1518 1520 1521 1522 1522 1523 1523 1524 1524 1524 1524 1525 1525 1525 1526 1526 1526 1526 1526 1526 1526 1526
1503 1510 1527 1533 1535 1528 1517 1519 1506 1493 1491 1490 1490 1490 1491 1492 1494 1496 1498 1500 1503 1505 1507 1509 1511 1513 1515 1516 1518 1519 1520 1521 1521 1522 1522 1522 1522 1523 1523 1523 1524 1524 1524 1524 1524 1524 1524 1524 1524
1504 1509 1509 1521 1524 1528 1522 1513 1501 1492 1491 1490 1489 1490 1490 1491 1492 1494 1496 1498 1500 1503 1505 1507 1509 1511 1513 1514 1516 1517 1518 1519 1519 1520 1520 1520 1521 1521 1521 1521 1522 1522 1522 1522 1522 1523 1523 1523 1523
1497 1503 1514 1521 1528 1531 1521 1515 1508 1496 1492 1491 1490 1490 1490 1491 1491 1492 1494 1496 1498 1501 1503 1505 1507 1508 1510 1512 1513 1515 1516 1516 1517 1518 1518 1518 1518 1519 1519 1519 1519 1519 1520 1520 1520 1520 1521 1521 1521
1502 1505 1510 1518 1520 1527 1527 1516 1494 1492 1490 1490 1489 1489 1490 1490 1490 1491 1493 1494 1497 1499 1501 1502 1504 1506 1508 1509 1511 1512 1513 1514 1514 1515 1515 1516 1516 1516 1516 1516 1517 1517 1517 1517 1518 1518 1518 1518 1518
1495 1499 1507 1515 1518 1520 1523 1515 1488 1488 1488 1488 1488 1489 1489 1489 1489 1490 1491 1493 1494 1496 1498 1500 1501 1503 1505 1506 1508 1509 1510 1511 1512 1512 1513 1513 1513 1513 1514 1514 1514 1514 1515 1515 1515 1515 1515 1516 1516